{"data":{"norad_id":48578,"intl_designator":"2021-041AB","name":"STARLINK-2232","alt_names":[],"object_type":"PAYLOAD","status":"ACTIVE","operator":null,"country":"US","launch_date":"2021-05-15","launch_site_code":"AFETR","launch_vehicle":null,"mission":null,"orbit_class":"UNKNOWN","rcs_meters":null,"size_class":null,"mass_kg":null,"dimensions":null,"purposes":["comms"],"wikipedia_slug":null,"has_3d_model":false,"image_url":null,"decayed_at":null,"tle_current":{"epoch":"2026-09-19T18:15:11.491488Z","epoch_age_seconds":101234,"freshness":"FRESH","line1":"1 48578U 21041AB  26262.76054967 -.00199374  00000+0 -66539-2 0  9997","line2":"2 48578  53.1597 303.5773 0003197  80.4140 279.7222 15.31361731295018","mean_motion":15.31361731,"eccentricity":0.0003197,"inclination_deg":53.1597,"raan_deg":303.5773,"arg_perigee_deg":80.414,"mean_anomaly_deg":279.7222,"bstar":-0.0066539,"rev_number":29501,"period_min":94.033954933669,"perigee_km":469.55863471773,"apogee_km":473.938451534,"semimajor_km":6849.8855431259,"source":"CELESTRAK","updated_at":"2026-09-20T09:00:39.136373Z"}}}